Location: Haliburton Scout Reserve
(45.0900°N, 78.3200°W)
Time: 08:48:28
(UTC-04:00)

S-56A Canister/Altair - Pass Details

Date: 07 February 2023
Orbit: 639 x 2493 km, 38.9° (Epoch: 27 March)

Event Time Altitude Azimuth Distance (km) Brightness Sun altitude
Rises 08:27:19 0° 200° (SSW) 3,122 10.8 8.8°
Reaches altitude 10° 08:32:02 10° 158° (SSE) 2,039 10.8 9.5°
Maximum altitude 08:32:46 10° 149° (SSE) 2,004 11.1 9.7°
Drops below altitude 10° 08:33:31 10° 139° (SE) 2,021 11.7 9.8°
Sets 08:38:02 0° 97° (E) 2,978 11.8 10.4°
